Location: Unspecified
(43.4680°N, 87.1740°E)
Time: 04:42:08
(UTC+00:00)

Cosmos 489 Rocket - Pass Details

Date: 17 April 2021
Orbit: 953 x 983 km, 74.0° (Epoch: 16 May)

Event Time Altitude Azimuth Distance (km) Brightness Sun altitude
Rises 21:43:05 0° 337° (NNW) 3,638 7.7 -17.4°
Reaches altitude 10° 21:45:36 10° 336° (NNW) 2,689 6.9 -17.0°
Maximum altitude 21:51:48 74° 253° (WSW) 995 4.4 -16.1°
Drops below altitude 10° 21:57:58 10° 169° (S) 2,680 6.6 -15.2°
Sets 22:00:29 0° 168° (SSE) 3,626 7.3 -14.8°
